Home > Weather > Roanoke > Past weeks

Flag for U.S.A. Weather for the Past 2 Weeks in Roanoke, Virginia, U.S.A.

Now
10 °F

Clear.


Feels Like: 4 °F
Forecast: 11 / 26 °F
Wind: 3 mph from North

Location: Roanoke Regional Airport

Current Time: Feb 14, 2016 at 4:12:20 AM

Latest Report: Feb 14, 2016 at 3:54 AM


Visibility: 10 mi

Pressure: 30.51 "Hg

Humidity: 53%

Dew point: -4 °F

Location of RoanokeLocation

Historic Weather in Roanoke — Graph

°F

Roanoke Temperature Yesterday

Maximum temperature yesterday: 29 °F (at 12:54 AM)
Minimum temperature yesterday: 14 °F (at 10:54 PM)
Average temperature yesterday: 20 °F

High & Low Weather Summary for the Past Weeks

 TemperatureHumidityPressure
High63 °F (Feb 1, 2:54 PM)100% (Feb 2, 12:54 AM)30.48 "Hg (Feb 2, 12:54 AM)
Low11 °F (Feb 14, 1:54 AM)26% (Feb 11, 3:54 PM)29.59 "Hg (Feb 9, 3:54 AM)
Average35 °F62%30.08 "Hg
* Reported Jan 30 2:54 AM — Feb 14 2:54 AM, Roanoke, Weather by CustomWeather, © 2016

Note: Actual official high and low records may vary slightly from our data, if they occured in-between our weather recording intervals... More about our weather records

Advertising

Roanoke Weather History for the Previous 24 Hours

 ConditionsComfort  
Time TempWeatherWind HumidityBarometerVisibility
2:54 AM
Sun, Feb 14
11 °FClear.5 mph48%30.48 "Hg10 mi
1:54 AM11 °FClear.5 mph51%30.47 "Hg10 mi
12:54 AM13 °FClear.9 mph44%30.47 "Hg10 mi
11:54 PM
Sat, Feb 13
14 °FClear.No wind40%30.47 "Hg10 mi
10:54 PM14 °FClear.6 mph42%30.47 "Hg10 mi
9:54 PM15 °FClear.8 mph40%30.47 "Hg10 mi
8:54 PM17 °FClear.14 mph35%30.46 "Hg10 mi
7:54 PM17 °FClear.12 mph35%30.46 "Hg10 mi
6:54 PM18 °FClear.17 mph32%30.44 "Hg10 mi
5:54 PM19 °FPassing clouds.14 mph31%30.41 "Hg10 mi
4:54 PM21 °FPassing clouds.14 mph31%30.39 "Hg10 mi
3:54 PM22 °FScattered clouds.21 mph31%30.36 "Hg10 mi
2:54 PM22 °FScattered clouds.16 mph31%30.34 "Hg10 mi
1:54 PM23 °FScattered clouds.18 mph30%30.34 "Hg10 mi
12:54 PM22 °FScattered clouds.26 mph31%30.34 "Hg10 mi
11:54 AM22 °FScattered clouds.23 mph31%30.35 "Hg10 mi
10:54 AM21 °FScattered clouds.18 mph34%30.35 "Hg10 mi
9:54 AM20 °FPartly sunny.21 mph40%30.33 "Hg10 mi
8:54 AM19 °FScattered clouds.21 mph39%30.31 "Hg10 mi
7:54 AM17 °FScattered clouds.20 mph41%30.29 "Hg10 mi
6:54 AM18 °FPassing clouds.17 mph39%30.24 "Hg10 mi
5:54 AM19 °FPassing clouds.18 mph41%30.21 "Hg10 mi
4:54 AM20 °FPassing clouds.22 mph43%30.16 "Hg10 mi
Weather by CustomWeather, © 2016

See weather overviewHow to use our weather pages